WA1ENO Weather Reports


Display with metric or nautical units.
time (UTC)temp
F
wind
direction
speed
MPH
gust
MPH
rain 1hr
in
rain 24hr
in
rain mn
in
humidity
%
barometer
mb
20260506195506 61 202 13.0 25.0 0.00 0.00 0.00 2 1007.1
20260506195007 61 203 10.0 22.0 0.00 0.00 0.00 2 1007.1
20260506194006 61 194 14.0 24.0 0.00 0.00 0.00 2 1007.1
20260506193508 62 192 16.0 29.0 0.00 0.00 0.00 2 1007.0
20260506193007 63 207 11.0 22.0 0.00 0.00 0.00 2 1007.2
20260506192506 63 201 14.0 30.0 0.00 0.00 0.00 2 1007.1
20260506191506 63 201 12.0 28.0 0.00 0.00 0.00 2 1007.2
20260506191006 63 233 12.0 23.0 0.00 0.00 0.00 2 1007.2
20260506190507 63 202 13.0 23.0 0.00 0.00 0.00 2 1007.0
20260506190007 63 205 12.0 28.0 0.00 0.00 0.00 2 1006.9
20260506185506 64 199 10.0 22.0 0.00 0.00 0.00 2 1006.9
20260506185007 64 196 12.0 24.0 0.00 0.00 0.00 2 1007.2
20260506184506 64 209 14.0 24.0 0.00 0.00 0.00 2 1007.1
20260506184006 64 198 12.0 22.0 0.00 0.00 0.00 2 1007.2
20260506183506 64 206 13.0 29.0 0.00 0.00 0.00 2 1007.3
20260506183007 64 201 16.0 26.0 0.00 0.00 0.00 2 1007.3
20260506182506 65 200 16.0 28.0 0.00 0.00 0.00 2 1007.2
20260506182006 65 203 11.0 26.0 0.00 0.00 0.00 2 1007.3
20260506181506 65 198 13.0 29.0 0.00 0.00 0.00 2 1007.4
20260506180507 65 207 10.0 29.0 0.00 0.00 0.00 2 1007.7
20260506175506 66 205 12.0 26.0 0.00 0.00 0.00 2 1007.8
20260506175006 66 198 12.0 26.0 0.00 0.00 0.00 2 1007.9
20260506174006 66 224 13.0 26.0 0.00 0.00 0.00 2 1008.0
20260506172506 66 216 20.0 32.0 0.00 0.00 0.00 2 1007.8
20260506172007 67 199 16.0 35.0 0.00 0.00 0.00 2 1007.9
20260506171506 66 209 15.0 28.0 0.00 0.00 0.00 2 1007.8
20260506171006 66 203 12.0 31.0 0.00 0.00 0.00 2 1007.9
20260506170506 65 198 16.0 28.0 0.00 0.00 0.00 2 1007.9
20260506170007 66 196 16.0 24.0 0.00 0.00 0.00 2 1008.2
20260506165506 66 205 13.0 33.0 0.00 0.00 0.00 2 1008.1
20260506165007 66 200 18.0 35.0 0.00 0.00 0.00 2 1008.3
20260506164506 66 205 13.0 24.0 0.00 0.00 0.00 2 1008.3
20260506164008 67 204 13.0 20.0 0.00 0.00 0.00 2 1008.3
20260506163506 67 198 12.0 25.0 0.00 0.00 0.00 2 1008.4
20260506163006 67 200 7.0 15.0 0.00 0.00 0.00 2 1008.4
20260506162505 67 214 10.0 24.0 0.00 0.00 0.00 2 1008.5
20260506161506 66 192 14.0 24.0 0.00 0.00 0.00 2 1008.6
20260506161006 67 198 10.0 21.0 0.00 0.00 0.00 2 1008.6
20260506160506 67 191 14.0 22.0 0.00 0.00 0.00 2 1008.7
20260506160006 67 193 13.0 25.0 0.00 0.00 0.00 2 1008.8
20260506155506 67 187 15.0 24.0 0.00 0.00 0.00 2 1008.8
20260506155006 68 203 8.0 23.0 0.00 0.00 0.00 2 1008.9
20260506154506 66 189 14.0 22.0 0.00 0.00 0.00 2 1009.2
20260506153506 66 195 13.0 22.0 0.00 0.00 0.00 2 1009.3
20260506153006 66 186 12.0 22.0 0.00 0.00 0.00 2 1009.4
20260506152506 66 189 11.0 21.0 0.00 0.00 0.00 2 1009.4
20260506152006 65 193 14.0 23.0 0.00 0.00 0.00 2 1009.5
20260506151507 66 202 10.0 23.0 0.00 0.00 0.00 2 1009.4
20260506151006 66 205 12.0 29.0 0.00 0.00 0.00 2 1009.4
20260506150508 66 203 12.0 24.0 0.00 0.00 0.00 2 1009.5
20260506145508 65 201 14.0 29.0 0.00 0.00 0.00 2 1009.5
20260506145008 65 205 15.0 24.0 0.00 0.00 0.00 2 1009.4
20260506144508 65 203 14.0 24.0 0.00 0.00 0.00 2 1009.1
20260506144008 66 192 13.0 28.0 0.00 0.00 0.00 2 1009.1
20260506143509 66 197 12.0 25.0 0.00 0.00 0.00 2 1009.2
20260506143008 67 194 11.0 24.0 0.00 0.00 0.00 2 1009.3
20260506142508 66 184 14.0 25.0 0.00 0.00 0.00 2 1009.2
20260506142008 65 197 13.0 23.0 0.00 0.00 0.00 2 1009.2
20260506141508 65 193 14.0 25.0 0.00 0.00 0.00 2 1009.2
20260506141008 66 195 12.0 22.0 0.00 0.00 0.00 2 1009.0
20260506140508 66 192 13.0 20.0 0.00 0.00 0.00 2 1009.2
20260506140008 66 201 9.0 18.0 0.00 0.00 0.00 2 1009.1
20260506135508 65 185 14.0 21.0 0.00 0.00 0.00 2 1009.4
20260506134509 65 187 10.0 18.0 0.00 0.00 0.00 2 1009.7
20260506134008 64 188 13.0 22.0 0.00 0.00 0.00 2 1009.7
20260506133508 64 207 13.0 21.0 0.00 0.00 0.00 2 1009.9
20260506133008 64 198 14.0 21.0 0.00 0.00 0.00 2 1009.9
20260506132508 63 192 13.0 23.0 0.00 0.00 0.00 2 1009.8
20260506132008 63 196 13.0 21.0 0.00 0.00 0.00 2 1009.8
20260506131008 63 196 10.0 18.0 0.00 0.00 0.00 2 1009.8
20260506130507 63 198 11.0 16.0 0.00 0.00 0.00 2 1009.8
20260506130008 62 200 12.0 18.0 0.00 0.00 0.00 2 1009.9
20260506125508 62 197 10.0 22.0 0.00 0.00 0.00 2 1009.8
20260506125008 62 209 7.0 20.0 0.00 0.00 0.00 2 1009.8
20260506124508 62 199 13.0 24.0 0.00 0.00 0.00 2 1009.7
20260506123508 60 188 14.0 21.0 0.00 0.00 0.00 2 1009.6
20260506123008 60 196 13.0 22.0 0.00 0.00 0.00 2 1009.6
20260506122007 61 192 10.0 16.0 0.00 0.00 0.00 2 1010.0
20260506121507 60 198 9.0 17.0 0.00 0.00 0.00 2 1010.1
20260506121007 60 205 11.0 18.0 0.00 0.00 0.00 2 1010.2
20260506120508 60 191 14.0 22.0 0.00 0.00 0.00 2 1010.1
20260506120007 60 200 17.0 26.0 0.00 0.00 0.00 2 1010.2
20260506115509 60 196 10.0 24.0 0.00 0.00 0.00 2 1010.1
20260506115008 60 192 14.0 22.0 0.00 0.00 0.00 2 1010.3
20260506114508 61 188 10.0 17.0 0.00 0.00 0.00 2 1010.2
20260506113508 60 204 13.0 24.0 0.00 0.00 0.00 2 1010.3
20260506112508 59 198 11.0 21.0 0.00 0.00 0.00 2 1010.2
20260506112008 59 204 12.0 20.0 0.00 0.00 0.00 2 1010.3
20260506111508 59 205 9.0 17.0 0.00 0.00 0.00 2 1010.2
20260506111008 59 194 10.0 14.0 0.00 0.00 0.00 2 1010.2
20260506110508 59 204 7.0 18.0 0.00 0.00 0.00 2 1010.2
20260506110008 59 204 10.0 18.0 0.00 0.00 0.00 2 1010.3
20260506105508 59 203 8.0 15.0 0.00 0.00 0.00 2 1010.4
20260506105008 59 200 9.0 15.0 0.00 0.00 0.00 2 1010.4
20260506104508 59 199 9.0 16.0 0.00 0.00 0.00 2 1010.3
20260506104008 59 203 12.0 22.0 0.00 0.00 0.00 2 1010.3
20260506103508 59 197 7.0 18.0 0.00 0.00 0.00 2 1010.3
20260506103008 59 216 9.0 15.0 0.00 0.00 0.00 2 1010.2
20260506102508 59 213 9.0 16.0 0.00 0.00 0.00 2 1010.2
20260506101507 59 214 8.0 15.0 0.00 0.00 0.00 2 1010.1
20260506101007 58 199 9.0 17.0 0.00 0.00 0.00 2 1010.1
20260506100507 58 193 10.0 20.0 0.00 0.00 0.00 2 1010.0
20260506100007 59 193 9.0 16.0 0.00 0.00 0.00 2 1010.0
20260506095507 58 202 7.0 17.0 0.00 0.00 0.00 2 1010.0
20260506095007 58 200 10.0 16.0 0.00 0.00 0.00 2 1010.0
20260506093007 58 199 7.0 17.0 0.00 0.00 0.00 2 1010.0
20260506092508 59 196 10.0 16.0 0.00 0.00 0.00 2 1009.9
20260506092008 59 200 10.0 16.0 0.00 0.00 0.00 2 1009.9
20260506091007 59 197 9.0 21.0 0.00 0.00 0.00 2 1010.0
20260506090507 59 200 7.0 20.0 0.00 0.00 0.00 2 1010.0
20260506090007 59 206 8.0 22.0 0.00 0.00 0.00 2 1010.0
20260506085507 59 203 14.0 23.0 0.00 0.00 0.00 2 1010.2
20260506085007 59 208 10.0 18.0 0.00 0.00 0.00 2 1010.2
20260506084507 59 206 12.0 22.0 0.00 0.00 0.00 2 1010.1
20260506084007 59 194 10.0 16.0 0.00 0.00 0.00 2 1010.2
20260506083508 59 193 10.0 18.0 0.00 0.00 0.00 2 1010.2
20260506083008 59 196 9.0 16.0 0.00 0.00 0.00 2 1010.1
20260506082508 59 200 10.0 17.0 0.00 0.00 0.00 2 1010.1
20260506082007 59 201 10.0 18.0 0.00 0.00 0.00 2 1010.1
20260506081508 59 198 10.0 18.0 0.00 0.00 0.00 2 1010.2
20260506081007 59 207 11.0 23.0 0.00 0.00 0.00 2 1010.2
20260506080507 59 201 10.0 18.0 0.00 0.00 0.00 2 1010.1
20260506073508 59 216 10.0 16.0 0.00 0.00 0.00 2 1010.1
20260506072508 59 193 11.0 21.0 0.00 0.00 0.00 2 1010.1
20260506072007 59 197 13.0 20.0 0.00 0.00 0.00 2 1010.0
20260506071507 59 209 9.0 23.0 0.00 0.00 0.00 2 1009.9
20260506070508 59 197 7.0 16.0 0.00 0.00 0.00 2 1010.0
20260506062507 59 198 9.0 17.0 0.00 0.00 0.00 2 1009.8
20260506062008 60 203 11.0 21.0 0.00 0.00 0.00 2 1009.8
20260506061507 59 204 11.0 18.0 0.00 0.00 0.00 2 1009.8
20260506061007 59 193 13.0 24.0 0.00 0.00 0.00 2 1009.9